Zhengzhou Xinzheng International Airport

Airport
ICAO code: 
ZHCC
IATA Code: 
CGO
Summary
ICAO Region: 
APAC
Territory: 
Location: 
Xinzheng, Zhengzhou, Henan
Serving: 
Zhengzhou
Elevation: 
151 ft
Coordinates: 
Aerial View: 
34° 31' 10.999" N, 113° 50' 26.999" E
Metar
Observation
ZHCC 240700Z 33002MPS 4000 BR BKN033 01/M04 Q1025 NOSIG
Station
Zhengzhou
Date/Time
2022-01-24 07:00:00
Wind direction
330°
Lowest cloud amount
broken clouds
Temperature
1°C
Dew point
-4°C
Humidity
69%
QNH
1025 hPa
Weather condition
n/a

Description

Zhengzhou Xinzheng International Airport is the principal airport of Zhengzhou, Henan Province, People's Republic of China.

Climatology

Humid subtropical climate (Köppen climate classification Cfa.) Hot muggy summers with frequent thunderstorms. Winters are mild and precipitation during this season comes from mid-latitude cyclones. This climate type is quite common on the east coasts of continents.

Runways

Designator Length Width Surface Rops
12/30 3400 60 CON Yes/Yes
Airport map: 
Aerial View: 

SKYbrary Partners:

Safety knowledge contributed by: